| time (UTC) | temp C | wind direction | speed KPH | gust KPH | rain 1hr cm | rain 24hr cm | rain mn cm | humidity % | barometer mb |
| 20260901051345 | 16 | 0 | 9.7 | 0.0 | 0.00 | 0.00 | 0.00 | 75 | |
| 20260901050345 | 16 | 0 | 4.8 | 0.0 | 0.00 | 0.00 | 0.00 | 74 | |
| 20260901045345 | 16 | 0 | 3.2 | 0.0 | 0.00 | 0.00 | 0.00 | 74 | |
| 20260901044315 | 16 | 0 | 3.2 | 0.0 | 0.00 | 0.00 | 0.00 | 74 | |
| 20260901043245 | 16 | 0 | 3.2 | 0.0 | 0.00 | 0.00 | 0.00 | 73 | |
| 20260901042245 | 16 | 0 | 4.8 | 0.0 | 0.00 | 0.00 | 0.00 | 73 | |
| 20260901041245 | 17 | 0 | 3.2 | 0.0 | 0.00 | 0.00 | 0.00 | 73 | |
| 20260901040215 | 17 | 0 | 1.6 | 0.0 | 0.00 | 0.00 | 0.00 | 73 | |
| 20260901035215 | 17 | 0 | 6.4 | 0.0 | 0.00 | 0.00 | 0.00 | 72 | |
| 20260901034145 | 17 | 0 | 1.6 | 0.0 | 0.00 | 0.00 | 0.00 | 70 | |
| 20260901033145 | 18 | 0 | 3.2 | 0.0 | 0.00 | 0.00 | 0.00 | 69 | |
| 20260901032145 | 18 | 0 | 4.8 | 0.0 | 0.00 | 0.00 | 0.00 | 67 | |
| 20260901031145 | 18 | 0 | 4.8 | 0.0 | 0.00 | 0.00 | 0.00 | 66 | |
| 20260901030145 | 19 | 0 | 3.2 | 0.0 | 0.00 | 0.00 | 0.00 | 64 | |
| 20260901025115 | 20 | 0 | 4.8 | 0.0 | 0.00 | 0.00 | 0.00 | 62 | |
| 20260901024045 | 20 | 0 | 8.0 | 0.0 | 0.00 | 0.00 | 0.00 | 61 | |
| 20260901023045 | 21 | 0 | 0.0 | 0.0 | 0.00 | 0.00 | 0.00 | 60 | |
| 20260901022045 | 21 | 0 | 3.2 | 0.0 | 0.00 | 0.00 | 0.00 | 59 | |
| 20260901021015 | 22 | 0 | 1.6 | 0.0 | 0.00 | 0.00 | 0.00 | 58 | |
| 20260901015945 | 22 | 0 | 4.8 | 0.0 | 0.00 | 0.00 | 0.00 | 57 | |
| 20260901014945 | 23 | 0 | 6.4 | 0.0 | 0.00 | 0.00 | 0.00 | 55 | |
| 20260901013915 | 23 | 0 | 3.2 | 0.0 | 0.00 | 0.00 | 0.00 | 54 | |
| 20260901012915 | 23 | 0 | 3.2 | 0.0 | 0.00 | 0.00 | 0.00 | 52 | |
| 20260901011915 | 23 | 0 | 6.4 | 0.0 | 0.00 | 0.00 | 0.00 | 52 | |
| 20260901010845 | 24 | 0 | 9.7 | 0.0 | 0.00 | 0.00 | 0.00 | 50 | |
| 20260901005845 | 25 | 0 | 4.8 | 0.0 | 0.00 | 0.00 | 0.00 | 48 | |
| 20260901004815 | 25 | 0 | 6.4 | 0.0 | 0.00 | 0.00 | 0.00 | 48 | |
| 20260901003815 | 26 | 0 | 11.3 | 0.0 | 0.00 | 0.00 | 0.00 | 46 | |
| 20260901002815 | 27 | 0 | 3.2 | 0.0 | 0.00 | 0.00 | 0.00 | 44 | |
| 20260901001745 | 28 | 0 | 12.9 | 0.0 | 0.00 | 0.00 | 0.00 | 41 | |
| 20260901000745 | 28 | 0 | 3.2 | 0.0 | 0.00 | 0.00 | 0.00 | 40 | |
| 20260831235715 | 28 | 0 | 4.8 | 0.0 | 0.00 | 0.00 | 0.00 | 39 | |
| 20260831234645 | 30 | 0 | 3.2 | 0.0 | 0.00 | 0.00 | 0.00 | 38 | |
| 20260831233645 | 30 | 0 | 4.8 | 0.0 | 0.00 | 0.00 | 0.00 | 37 | |
| 20260831232615 | 30 | 0 | 3.2 | 0.0 | 0.00 | 0.00 | 0.00 | 37 | |
| 20260831231615 | 30 | 0 | 4.8 | 0.0 | 0.00 | 0.00 | 0.00 | 37 | |
| 20260831230615 | 30 | 0 | 3.2 | 0.0 | 0.00 | 0.00 | 0.00 | 37 | |
| 20260831225615 | 29 | 0 | 8.0 | 0.0 | 0.00 | 0.00 | 0.00 | 38 | |
| 20260831224545 | 28 | 0 | 11.3 | 0.0 | 0.00 | 0.00 | 0.00 | 38 | |
| 20260831223515 | 28 | 0 | 11.3 | 0.0 | 0.00 | 0.00 | 0.00 | 38 | |
| 20260831222515 | 28 | 0 | 6.4 | 0.0 | 0.00 | 0.00 | 0.00 | 38 | |
| 20260831221445 | 28 | 0 | 9.7 | 0.0 | 0.00 | 0.00 | 0.00 | 38 | |
| 20260831220445 | 29 | 0 | 6.4 | 0.0 | 0.00 | 0.00 | 0.00 | 39 | |
| 20260831215445 | 28 | 0 | 6.4 | 0.0 | 0.00 | 0.00 | 0.00 | 41 | |
| 20260831214415 | 28 | 0 | 9.7 | 0.0 | 0.00 | 0.00 | 0.00 | 39 | |
| 20260831213416 | 28 | 0 | 8.0 | 0.0 | 0.00 | 0.00 | 0.00 | 39 | |
| 20260831212345 | 29 | 0 | 11.3 | 0.0 | 0.00 | 0.00 | 0.00 | 39 | |
| 20260831211345 | 30 | 0 | 3.2 | 0.0 | 0.00 | 0.00 | 0.00 | 38 | |
| 20260831210315 | 28 | 0 | 4.8 | 0.0 | 0.00 | 0.00 | 0.00 | 40 | |
| 20260831205315 | 28 | 0 | 3.2 | 0.0 | 0.00 | 0.00 | 0.00 | 40 | |
| 20260831204245 | 28 | 0 | 12.9 | 0.0 | 0.00 | 0.00 | 0.00 | 41 | |
| 20260831203245 | 27 | 0 | 6.4 | 0.0 | 0.00 | 0.00 | 0.00 | 43 | |
| 20260831202215 | 27 | 0 | 4.8 | 0.0 | 0.00 | 0.00 | 0.00 | 45 | |
| 20260831201145 | 27 | 0 | 11.3 | 0.0 | 0.00 | 0.00 | 0.00 | 45 | |
| 20260831200115 | 26 | 0 | 8.0 | 0.0 | 0.00 | 0.00 | 0.00 | 47 | |
| 20260831195115 | 26 | 0 | 11.3 | 0.0 | 0.00 | 0.00 | 0.00 | 46 | |
| 20260831194115 | 26 | 0 | 4.8 | 0.0 | 0.00 | 0.00 | 0.00 | 47 | |
| 20260831193045 | 26 | 0 | 9.7 | 0.0 | 0.00 | 0.00 | 0.00 | 46 | |
| 20260831192015 | 26 | 0 | 6.4 | 0.0 | 0.00 | 0.00 | 0.00 | 47 | |
| 20260831190945 | 26 | 0 | 3.2 | 0.0 | 0.00 | 0.00 | 0.00 | 48 | |
| 20260831185915 | 26 | 0 | 11.3 | 0.0 | 0.00 | 0.00 | 0.00 | 48 | |
| 20260831184915 | 25 | 0 | 3.2 | 0.0 | 0.00 | 0.00 | 0.00 | 49 | |
| 20260831183845 | 25 | 0 | 8.0 | 0.0 | 0.00 | 0.00 | 0.00 | 49 | |
| 20260831182845 | 25 | 0 | 6.4 | 0.0 | 0.00 | 0.00 | 0.00 | 50 | |
| 20260831181845 | 25 | 0 | 8.0 | 0.0 | 0.00 | 0.00 | 0.00 | 51 | |
| 20260831180845 | 24 | 0 | 6.4 | 0.0 | 0.00 | 0.00 | 0.00 | 52 | |
| 20260831175815 | 25 | 0 | 8.0 | 0.0 | 0.00 | 0.00 | 0.00 | 52 | |
| 20260831174745 | 25 | 0 | 8.0 | 0.0 | 0.00 | 0.00 | 0.00 | 51 | |
| 20260831173715 | 23 | 0 | 4.8 | 0.0 | 0.00 | 0.00 | 0.00 | 51 | |
| 20260831172645 | 23 | 0 | 6.4 | 0.0 | 0.00 | 0.00 | 0.00 | 51 | |
| 20260831171645 | 22 | 0 | 3.2 | 0.0 | 0.00 | 0.00 | 0.00 | 54 | |
| 20260831170615 | 22 | 0 | 1.6 | 0.0 | 0.00 | 0.00 | 0.00 | 55 | |
| 20260831165615 | 22 | 0 | 9.7 | 0.0 | 0.00 | 0.00 | 0.00 | 55 | |
| 20260831164545 | 22 | 0 | 3.2 | 0.0 | 0.00 | 0.00 | 0.00 | 49 | |
| 20260831163515 | 22 | 0 | 3.2 | 0.0 | 0.00 | 0.00 | 0.00 | 50 | |
| 20260831162515 | 22 | 0 | 3.2 | 0.0 | 0.00 | 0.00 | 0.00 | 50 | |
| 20260831161515 | 22 | 0 | 4.8 | 0.0 | 0.00 | 0.00 | 0.00 | 50 | |
| 20260831160515 | 21 | 0 | 3.2 | 0.0 | 0.00 | 0.00 | 0.00 | 51 | |
| 20260831155445 | 21 | 0 | 1.6 | 0.0 | 0.00 | 0.00 | 0.00 | 53 | |
| 20260831154445 | 20 | 0 | 4.8 | 0.0 | 0.00 | 0.00 | 0.00 | 58 | |
| 20260831153445 | 18 | 0 | 3.2 | 0.0 | 0.00 | 0.00 | 0.00 | 61 | |
| 20260831152415 | 17 | 0 | 1.6 | 0.0 | 0.00 | 0.00 | 0.00 | 64 | |
| 20260831151345 | 17 | 0 | 1.6 | 0.0 | 0.00 | 0.00 | 0.00 | 68 | |
| 20260831150315 | 16 | 0 | 0.0 | 0.0 | 0.00 | 0.00 | 0.00 | 71 | |
| 20260831145315 | 15 | 0 | 0.0 | 0.0 | 0.00 | 0.00 | 0.00 | 74 | |
| 20260831144245 | 14 | 0 | 0.0 | 0.0 | 0.00 | 0.00 | 0.00 | 76 | |
| 20260831143215 | 14 | 0 | 0.0 | 0.0 | 0.00 | 0.00 | 0.00 | 76 | |
| 20260831142215 | 14 | 0 | 0.0 | 0.0 | 0.00 | 0.00 | 0.00 | 74 | |
| 20260831141215 | 13 | 0 | 1.6 | 0.0 | 0.00 | 0.00 | 0.00 | 73 | |
| 20260831140145 | 13 | 0 | 0.0 | 0.0 | 0.00 | 0.00 | 0.00 | 73 | |
| 20260831135145 | 13 | 0 | 3.2 | 0.0 | 0.00 | 0.00 | 0.00 | 73 | |
| 20260831134115 | 13 | 0 | 1.6 | 0.0 | 0.00 | 0.00 | 0.00 | 74 | |
| 20260831133115 | 12 | 0 | 1.6 | 0.0 | 0.00 | 0.00 | 0.00 | 82 | |
| 20260831132045 | 12 | 0 | 0.0 | 0.0 | 0.00 | 0.00 | 0.00 | 80 | |
| 20260831131045 | 12 | 0 | 0.0 | 0.0 | 0.00 | 0.00 | 0.00 | 80 | |
| 20260831130045 | 12 | 0 | 0.0 | 0.0 | 0.00 | 0.00 | 0.00 | 79 | |
| 20260831125015 | 12 | 0 | 1.6 | 0.0 | 0.00 | 0.00 | 0.00 | 79 | |
| 20260831124015 | 12 | 0 | 0.0 | 0.0 | 0.00 | 0.00 | 0.00 | 80 | |
| 20260831123015 | 12 | 0 | 0.0 | 0.0 | 0.00 | 0.00 | 0.00 | 80 | |
| 20260831121945 | 12 | 0 | 0.0 | 0.0 | 0.00 | 0.00 | 0.00 | 79 | |
| 20260831120945 | 12 | 0 | 3.2 | 0.0 | 0.00 | 0.00 | 0.00 | 80 | |
| 20260831115945 | 12 | 0 | 0.0 | 0.0 | 0.00 | 0.00 | 0.00 | 81 | |
| 20260831114945 | 12 | 0 | 0.0 | 0.0 | 0.00 | 0.00 | 0.00 | 81 | |
| 20260831113945 | 12 | 0 | 0.0 | 0.0 | 0.00 | 0.00 | 0.00 | 80 | |
| 20260831112945 | 12 | 0 | 0.0 | 0.0 | 0.00 | 0.00 | 0.00 | 78 | |
| 20260831111915 | 12 | 0 | 0.0 | 0.0 | 0.00 | 0.00 | 0.00 | 78 | |
| 20260831110845 | 12 | 0 | 0.0 | 0.0 | 0.00 | 0.00 | 0.00 | 79 | |
| 20260831105845 | 12 | 0 | 0.0 | 0.0 | 0.00 | 0.00 | 0.00 | 78 | |
| 20260831104845 | 12 | 0 | 0.0 | 0.0 | 0.00 | 0.00 | 0.00 | 78 | |
| 20260831103815 | 12 | 0 | 1.6 | 0.0 | 0.00 | 0.00 | 0.00 | 78 | |
| 20260831102745 | 12 | 0 | 0.0 | 0.0 | 0.00 | 0.00 | 0.00 | 77 | |
| 20260831101745 | 12 | 0 | 0.0 | 0.0 | 0.00 | 0.00 | 0.00 | 78 | |
| 20260831100715 | 12 | 0 | 0.0 | 0.0 | 0.00 | 0.00 | 0.00 | 77 | |
| 20260831095715 | 13 | 0 | 0.0 | 0.0 | 0.00 | 0.00 | 0.00 | 77 | |
| 20260831094645 | 13 | 0 | 0.0 | 0.0 | 0.00 | 0.00 | 0.00 | 77 | |
| 20260831093645 | 13 | 0 | 0.0 | 0.0 | 0.00 | 0.00 | 0.00 | 77 | |
| 20260831092645 | 13 | 0 | 0.0 | 0.0 | 0.00 | 0.00 | 0.00 | 77 | |
| 20260831091615 | 13 | 0 | 0.0 | 0.0 | 0.00 | 0.00 | 0.00 | 77 | |
| 20260831090615 | 13 | 0 | 0.0 | 0.0 | 0.00 | 0.00 | 0.00 | 76 | |
| 20260831085545 | 13 | 0 | 0.0 | 0.0 | 0.00 | 0.00 | 0.00 | 75 | |
| 20260831084515 | 13 | 0 | 0.0 | 0.0 | 0.00 | 0.00 | 0.00 | 75 | |
| 20260831083445 | 13 | 0 | 0.0 | 0.0 | 0.00 | 0.00 | 0.00 | 74 | |
| 20260831082445 | 13 | 0 | 0.0 | 0.0 | 0.00 | 0.00 | 0.00 | 75 | |
| 20260831081445 | 14 | 0 | 0.0 | 0.0 | 0.00 | 0.00 | 0.00 | 74 | |
| 20260831080415 | 14 | 0 | 0.0 | 0.0 | 0.00 | 0.00 | 0.00 | 74 | |
| 20260831075415 | 14 | 0 | 0.0 | 0.0 | 0.00 | 0.00 | 0.00 | 72 | |
| 20260831074415 | 15 | 0 | 0.0 | 0.0 | 0.00 | 0.00 | 0.00 | 73 | |
| 20260831073415 | 15 | 0 | 0.0 | 0.0 | 0.00 | 0.00 | 0.00 | 71 | |
| 20260831072345 | 15 | 0 | 0.0 | 0.0 | 0.00 | 0.00 | 0.00 | 71 | |
| 20260831071345 | 15 | 0 | 0.0 | 0.0 | 0.00 | 0.00 | 0.00 | 71 | |
| 20260831070315 | 15 | 0 | 0.0 | 0.0 | 0.00 | 0.00 | 0.00 | 70 | |
| 20260831065315 | 16 | 0 | 0.0 | 0.0 | 0.00 | 0.00 | 0.00 | 70 | |
| 20260831064245 | 16 | 0 | 0.0 | 0.0 | 0.00 | 0.00 | 0.00 | 71 | |
| 20260831063215 | 16 | 0 | 0.0 | 0.0 | 0.00 | 0.00 | 0.00 | 68 | |
| 20260831062215 | 16 | 0 | 0.0 | 0.0 | 0.00 | 0.00 | 0.00 | 69 | |
| 20260831061145 | 16 | 0 | 0.0 | 0.0 | 0.00 | 0.00 | 0.00 | 70 | |
| 20260831060115 | 16 | 0 | 0.0 | 0.0 | 0.00 | 0.00 | 0.00 | 71 | |
| 20260831055045 | 16 | 0 | 0.0 | 0.0 | 0.00 | 0.00 | 0.00 | 70 | |
| 20260831054045 | 17 | 0 | 0.0 | 0.0 | 0.00 | 0.00 | 0.00 | 69 | |
| 20260831053015 | 17 | 0 | 0.0 | 0.0 | 0.00 | 0.00 | 0.00 | 68 |